This demonstration page uses our WeatherBlox Daily Observations layout. Learn more.

Left ArrowRight Arrow

41.55636, -103.73856

Hourly Observations for October 27, 2018

Temp ( °F °C ) Dew Point ( °F °C ) Humidity (%) Winds ( mph kmh ) Pressure ( in mb ) Visibility ( mi km ) Precip ( " mm )
12:58 am 00:58 Clear 44 6.7 32 -0.1 62 62 WNW 9 15 29.99 1016 10 16 N/A
1:58 am 01:58 Clear 40 4.7 31 -0.3 70 70 WSW 7 11 30.00 1016 10 16 N/A
2:58 am 02:58 Clear 38 3.4 31 -0.4 76 76 WSW 6 9 30.00 1016 10 16 N/A
3:58 am 03:58 Clear 39 4 32 0.1 76 76 W 9 15 29.97 1015 10 16 N/A
4:58 am 04:58 Clear 42 5.4 33 0.3 70 70 WNW 12 19 29.95 1014 10 16 N/A
5:58 am 05:58 Clear 44 6.8 33 0.3 64 64 WNW 14 22 29.97 1015 10 16 N/A
6:58 am 06:58 Clear 45 7.3 32 0.1 61 61 W 13 20 29.97 1015 10 16 N/A
7:58 am 07:58 Sunny 47 8.1 33 0.3 58 58 W 8 13 29.99 1016 10 16 N/A
8:58 am 08:58 Sunny 56 13.1 33 0.4 42 42 WSW 10 17 29.95 1014 10 16 N/A
9:58 am 09:58 Sunny 63 17.3 33 0.4 32 32 W 20 31 29.91 1013 10 16 N/A
10:58 am 10:58 Sunny 69 20.6 33 0.3 26 26 WNW 23 37 29.88 1012 10 16 N/A
11:58 am 11:58 Sunny 72 22.1 32 -0.1 23 23 NW 29 46 29.87 1012 10 16 N/A
12:58 pm 12:58 Sunny 74 23.1 31 -0.5 21 21 NW 37 59 29.85 1011 10 16 N/A
1:58 pm 13:58 Mostly Sunny 74 23.2 31 -0.7 20 20 NW 33 54 29.84 1010 10 16 N/A
2:58 pm 14:58 Sunny 73 22.5 30 -1.2 21 21 NNW 25 41 29.86 1011 10 16 N/A
3:58 pm 15:58 Partly Cloudy 70 21.1 34 1.3 27 27 NNE 24 39 29.89 1012 10 16 N/A
4:58 pm 16:58 Sunny 59 15.1 37 2.7 44 44 NNE 22 35 29.98 1015 10 16 N/A
5:58 pm 17:58 Mostly Clear 53 11.5 38 3.2 57 57 N 16 26 30.06 1018 10 16 N/A
6:58 pm 18:58 Clear 48 8.7 37 2.7 66 66 N 21 33 30.11 1020 10 16 N/A
7:58 pm 19:58 Clear 44 6.4 36 2.2 75 75 N 13 20 30.15 1021 10 16 N/A
8:58 pm 20:58 Partly Cloudy 42 5.5 35 1.7 77 77 NNW 9 15 30.14 1021 10 16 N/A
9:58 pm 21:58 Clear 40 4.2 33 0.7 78 78 NW 10 17 30.14 1021 10 16 N/A
10:58 pm 22:58 Clear 38 3.1 33 0.3 82 82 NNW 12 19 30.14 1021 10 16 N/A
11:58 pm 23:58 Clear 38 3.6 33 0.8 82 82 WNW 12 19 30.11 1020 10 16 N/A

Powered by AerisWeather